sat.trackr.live / text

‹ back to catalog

STARLINK-36362

NORAD 67424 · 2026-005W

PAYLOAD ACTIVE UNKNOWN

§ Identity

Operator
Country
US
Launch date
2026-01-12
Launch site
AFETR
Launch vehicle
Mass (kg)
RCS (m²)

Purposes: comms

External: N2YO · Heavens-Above · Gunter

§ Orbital elements

Epoch: 2026-05-25T01:04:37.898976Z

Period
94.27 min
Inclination
43.0010°
Eccentricity
0.0000932
Mean motion
15.27593509 rev/d
Perigee alt
482.4 km
Apogee alt
483.6 km
Semi-major
6,861.1 km
B*
4.9335e-4
RAAN
166.8018°
Arg perigee
279.5747°
Mean anomaly
80.4999°
Rev number
2,037

§ Raw data

STARLINK-363621 67424U 26005W   26145.04488309  .00013344  00000+0  49335-3 0  99912 67424  43.0010 166.8018 0000932 279.5747  80.4999 15.27593509 20375

JSON: /api/v1/satellites/67424 · /tle

For live sub-satellite position, see the globe view (requires WebGL).

§ Visibility from observer

Set your observer location to see the next 7 days of passes ≥ 10°. The values pass through the URL so the page stays shareable.

No JS? Fill the form by hand. The geolocation button needs JavaScript.